Location: Daouli
(14.8671°N, 3.2030°W)
Time: 02:25:49
(UTC+00:00)

Cosmos 1939 Rocket - Pass Details

Date: 29 October 2020
Orbit: 532 x 584 km, 97.4° (Epoch: 02 December)

Event Time Altitude Azimuth Distance (km) Brightness Sun altitude
Rises 18:21:51 0° 157° (SSE) 2,760 6.3 -9.5°
Reaches altitude 10° 18:24:04 10° 151° (SSE) 1,856 5.3 -10.0°
Maximum altitude 18:27:55 46° 78° (ENE) 758 3.1 -10.9°
Drops below altitude 10° 18:31:43 10° 4° (N) 1,828 5.3 -11.8°
Sets 18:33:52 0° 358° (N) 2,713 6.3 -12.3°
